COSMOS 991

导读 | 豆包AI

COSMOS 991(宇宙991)是苏联(归属独联体CIS)“宇宙”系列卫星,于1978年2月28日发射入轨。“宇宙”系列是苏联/俄罗斯规模最大的多任务卫星家族,涵盖应用、科学与技术试验卫星,该编号卫星延续系列命名传统,是冷战时期苏联航天发展进程中,卫星技术探索与空间应用布局的组成部分,见证了早期航天活动发展。

Basic Information
目录编号:
10692
目录名称:
COSMOS 991
国际标识:
1978-022A
轨道中心:
EARTH
卫星名称:
COSMOS 991
卫星全名:
--
卫星状态:
在轨 (已飞行17591 天)
发射日期:
1978-02-28 UTC
国别 :
俄罗斯(独联体) (CIS)
星等 :
--
Orbit Information
数据来源 国际轨道数据 AOE轨道数据
星历时间 2026-04-28T18:49:02+0800
11小时前
查看轨道信息
2026-04-28T08:00:00+0800
21小时前
查看轨道信息
半长轴 7354.226km 7354.223km
偏心率 0.0037699 0.0038248
轨道倾角 82.985° 82.992°
近地点辐角 68.748° 70.040°
升交点赤经 283.380° 283.710°
平近点角 348.111° 274.520°
近地点 948.364km 947.957km
远地点 1003.814km 1004.215km
周期 104.608分钟 104.608分钟
每日圈数 13.765669 13.765677
Detailed Information
使用方式:
暂无
2D Orbit Map
3D Orbit Map
Orbit Altitude Analysis Chart
Orbit Inclination Analysis Chart
Orbit Comprehensive Analysis Chart
View Comprehensive Chart